Simultaneous Nadir Overpasses (SNOs) Predictions

Prediction of SNOs between GOES-16 and NOAA-20 Satellite Orbit:

Table of predicted SNOs for the next 14.0 days since TLE Epoch: 3/1/2019
Index Date Time (GOES-16) GOES-16 Lat,Lon NOAA-20 Lat,Lon Distance(km) Time Diff (sec)
1 03/01/2019 18:27:01 0.01, -75.20 -0.11, -75.73 60.41 80
2 03/02/2019 18:10:57 0.00, -75.21 0.88, -71.20 456.50 80
3 03/04/2019 06:32:45 0.00, -75.20 0.31, -76.46 144.59 80
4 03/05/2019 06:11:22 0.00, -75.21 -0.74, -71.94 372.46 80
5 03/06/2019 18:33:19 -0.00, -75.23 -0.43, -77.25 229.07 80
6 03/07/2019 18:17:15 -0.00, -75.24 0.56, -72.71 288.45 80
7 03/09/2019 06:39:03 0.00, -75.25 0.63, -77.97 311.43 80
8 03/10/2019 06:17:39 0.00, -75.26 -0.42, -73.45 206.26 80
9 03/11/2019 18:39:36 -0.00, -75.29 -0.80, -78.75 394.59 80
10 03/12/2019 18:23:32 -0.00, -75.30 0.25, -74.22 123.34 80
11 03/14/2019 06:45:20 0.00, -75.31 0.94, -79.49 475.98 80
12 03/15/2019 06:23:57 -0.00, -75.33 -0.11, -74.97 41.97 80




NCC Satellite Simultaneous Nadir Overpasses (SNOs) Prediction Service
